{"data":{"norad_id":66774,"intl_designator":"2025-276DN","name":"GENA-OT","alt_names":[],"object_type":"PAYLOAD","status":"ACTIVE","operator":null,"country":"GER","launch_date":"2025-11-28","launch_site_code":"AFWTR","launch_vehicle":null,"mission":null,"orbit_class":"UNKNOWN","rcs_meters":null,"size_class":null,"mass_kg":null,"dimensions":null,"purposes":[],"wikipedia_slug":null,"has_3d_model":false,"image_url":null,"decayed_at":null,"tle_current":{"epoch":"2026-09-19T11:31:18.471360Z","epoch_age_seconds":205776,"freshness":"STALE","line1":"1 66774U 25276DN  26262.48007490  .00004020  00000+0  17893-3 0  9998","line2":"2 66774  97.4124 335.0474 0000820 155.6995 204.4280 15.22040032 44787","mean_motion":15.22040032,"eccentricity":8.2e-5,"inclination_deg":97.4124,"raan_deg":335.0474,"arg_perigee_deg":155.6995,"mean_anomaly_deg":204.428,"bstar":0.00017893,"rev_number":4478,"period_min":94.609863717435,"perigee_km":499.12406783207,"apogee_km":500.25203114018,"semimajor_km":6877.8250494861,"source":"CELESTRAK","updated_at":"2026-09-21T09:00:16.186963Z"}}}